Theta_e
335 335 336 336 336 336 336 336 335 335 335 334 334 333 333 333 333 333 332 333 333 333 332 331 331 331 331 331 331 331 331 331 332 332 332 332 330 330 330 329 329 328 328 327 328 329 330 331 330 329 329 329 329 328 328 330 329 329 328 328 329 326 321
336 336 336 336 336 336 335 334 334 334 334 333 333 333 333 332 332 332 332 332 333 333 332 332 331 331 330 330 330 330 330 330 331 332 333 332 331 331 331 330 329 329 328 328 328 328 328 330 331 330 329 329 330 329 328 329 329 330 329 328 329 326 321
337 336 336 336 335 334 334 333 333 332 332 332 332 333 333 332 331 332 332 332 331 331 331 331 330 330 330 329 330 330 330 330 330 331 332 332 332 332 331 331 330 329 328 328 327 328 327 328 330 330 329 329 330 330 329 329 329 330 329 328 329 327 321
336 336 335 334 333 333 332 332 332 332 331 331 331 332 332 332 331 331 331 331 330 329 329 328 328 328 328 328 328 328 328 328 329 329 330 331 332 332 333 332 331 330 329 328 328 328 327 327 328 329 328 329 329 329 329 330 329 329 329 328 329 328 322
335 334 333 332 332 331 331 332 331 331 331 330 331 331 331 331 331 330 330 329 329 328 328 328 328 327 326 326 326 327 327 328 328 328 329 330 330 331 332 331 331 330 329 329 329 328 327 328 328 329 328 328 329 329 328 329 329 329 329 328 329 329 325
333 333 332 331 330 330 330 330 330 330 330 330 330 330 330 329 329 329 329 329 329 328 328 328 327 327 326 325 325 325 326 327 327 329 330 330 329 329 329 329 328 328 328 329 329 328 327 327 328 328 328 328 329 329 328 328 328 328 328 328 328 330 328
332 331 330 330 329 329 329 329 329 328 328 328 328 328 328 328 328 328 328 328 328 328 328 328 327 326 325 325 326 326 326 326 326 327 329 329 329 329 329 328 328 327 328 328 328 327 327 327 327 328 328 328 328 329 329 328 328 328 328 328 327 329 329
330 329 328 328 327 327 327 327 327 327 327 327 327 327 327 327 327 328 328 328 328 328 328 328 327 327 326 326 327 328 328 328 327 327 327 328 329 329 329 328 328 328 328 328 328 327 327 327 327 327 328 329 329 329 330 329 329 328 328 328 327 327 328
328 327 327 326 326 326 326 326 326 326 327 326 327 327 327 327 327 327 327 327 328 327 327 327 327 327 327 327 327 328 328 328 328 327 327 327 328 329 329 328 328 328 328 328 328 328 328 327 327 327 327 329 330 331 331 331 330 329 329 328 328 327 327
326 326 326 326 326 326 326 326 326 326 326 326 326 326 326 326 326 326 326 325 326 325 325 326 326 327 327 328 328 328 327 327 327 328 328 328 328 328 328 328 328 328 328 328 328 328 327 327 327 327 327 328 329 330 331 332 331 330 329 328 328 328 327
325 325 326 325 326 326 325 324 324 325 325 325 325 324 324 325 325 325 325 324 324 324 324 325 326 327 328 328 328 328 327 327 327 327 328 328 328 328 328 328 328 328 328 328 328 327 327 328 327 327 327 327 328 329 330 330 330 329 329 329 329 328 328
324 324 325 325 325 325 324 323 323 324 324 324 323 323 323 324 324 324 324 323 324 323 324 325 325 327 327 327 329 329 327 326 327 328 328 328 328 328 328 328 328 328 328 328 327 328 328 328 328 327 327 327 327 328 328 329 329 329 329 329 329 329 328
324 324 325 324 324 323 322 322 322 322 322 323 322 322 322 321 321 322 323 323 324 324 324 326 326 327 328 328 329 329 328 327 327 327 327 328 328 328 328 328 329 329 328 328 327 328 328 327 328 328 327 327 327 328 327 327 329 329 328 328 329 328 328
322 322 322 322 321 321 320 320 320 319 321 321 321 320 320 320 321 322 322 323 324 325 326 327 327 327 328 328 329 329 329 328 328 328 328 328 328 328 328 328 329 329 328 328 328 328 327 328 328 328 328 327 327 327 327 327 327 327 327 327 328 328 327
320 320 320 320 319 319 319 319 318 319 320 320 320 320 320 320 321 320 321 323 325 325 326 326 326 327 327 328 329 329 329 329 329 329 329 329 329 329 329 328 329 329 328 328 328 327 327 327 328 328 328 327 327 327 327 326 326 326 326 326 327 327 327
318 319 318 318 317 317 317 317 318 318 318 318 319 319 319 319 319 317 319 322 323 324 325 326 326 326 326 326 327 328 328 328 328 329 329 329 329 329 329 328 328 328 328 328 328 327 327 327 327 328 328 327 327 327 327 327 326 325 325 325 326 327 327
317 317 316 316 315 315 315 316 316 317 317 317 318 318 318 318 317 316 318 320 322 322 324 325 326 326 326 326 326 327 327 327 327 327 328 328 328 328 328 327 327 327 327 328 328 328 327 327 328 328 328 327 327 327 327 327 327 326 325 324 325 326 327
315 315 314 313 313 314 314 315 315 316 316 316 316 316 316 316 315 316 318 320 322 323 324 324 325 326 326 326 326 326 326 327 327 327 327 327 327 327 327 327 327 327 327 327 328 328 328 328 328 327 327 327 327 327 327 326 326 327 326 325 324 325 325
313 312 312 312 312 313 313 313 313 314 313 313 313 314 314 315 315 316 318 319 321 323 323 324 325 326 326 326 326 326 326 326 327 327 326 327 327 327 327 327 327 327 327 327 327 328 328 328 327 327 327 327 327 327 327 326 326 326 326 325 324 324 325
311 310 310 311 311 312 312 312 312 311 311 311 312 313 314 314 314 315 316 318 319 320 321 323 325 326 325 326 326 325 325 326 326 326 326 326 326 326 326 327 327 327 327 327 327 327 327 328 327 327 327 327 327 326 326 326 326 326 326 325 324 324 324
310 310 310 310 311 312 312 312 312 311 311 311 311 311 311 312 312 313 315 316 317 318 320 321 323 324 324 325 325 324 325 325 325 325 325 325 325 326 326 326 326 326 326 327 326 326 327 327 327 327 327 326 326 326 326 326 326 325 325 324 323 323 323
310 310 310 311 311 312 312 312 311 311 311 310 309 309 310 310 310 312 314 315 316 318 319 319 319 322 323 323 322 322 322 323 323 324 324 324 324 324 325 325 325 325 326 326 326 326 326 326 326 326 326 326 326 326 326 326 325 325 324 324 323 323 323
310 310 310 310 311 311 311 311 310 310 309 309 308 309 309 309 309 310 311 313 315 316 316 316 318 319 320 320 320 320 320 320 321 322 322 322 323 323 323 323 324 324 325 325 325 326 326 326 326 326 326 326 326 326 326 325 324 324 324 323 322 322 322
310 309 310 310 310 310 310 309 309 308 308 307 308 309 309 307 307 308 309 311 313 313 312 313 316 317 318 318 318 318 318 318 318 319 319 320 321 321 321 321 322 323 324 325 325 325 325 325 325 325 325 325 325 325 325 324 324 324 324 323 322 322 321
309 308 308 308 308 308 309 308 308 308 307 307 308 308 307 306 305 307 309 311 311 310 309 311 314 315 316 316 315 315 315 315 315 315 316 317 318 319 319 319 320 321 321 323 324 324 323 323 323 323 323 323 323 323 323 323 323 324 324 323 322 321 321
308 307 307 307 307 308 308 307 306 306 306 307 308 308 308 307 306 307 309 310 309 308 308 310 312 313 314 314 313 313 312 312 311 311 312 313 314 315 316 317 318 318 319 320 321 321 320 319 319 319 320 319 319 320 321 322 322 323 323 323 322 321 321
308 307 306 306 307 307 306 305 305 305 306 307 307 307 307 307 306 307 308 308 308 308 307 308 311 312 312 312 312 311 310 309 309 308 308 309 309 310 311 312 313 315 316 317 317 317 317 316 316 315 315 315 315 316 318 319 320 321 322 322 322 322 321
307 306 306 305 306 305 304 304 304 304 304 304 305 304 305 305 305 306 306 307 308 307 305 307 310 311 310 310 311 310 309 308 307 307 307 308 308 309 309 309 310 311 312 313 314 315 315 314 314 313 311 310 310 311 312 313 315 317 318 319 319 319 319
306 305 305 304 304 304 303 303 302 302 301 301 302 303 303 304 304 304 305 307 307 305 305 306 309 309 309 309 308 307 306 306 306 305 306 307 307 308 309 309 309 309 309 310 312 313 313 313 312 310 308 306 307 307 307 308 310 312 313 313 314 315 316
305 304 303 303 303 302 302 302 301 301 301 301 301 302 302 302 303 304 305 306 305 304 304 306 308 309 309 309 307 305 304 304 304 304 304 305 305 306 307 307 308 308 307 308 309 310 311 312 311 308 307 306 306 306 305 306 308 310 310 311 311 312 313
304 303 302 302 302 301 301 301 301 300 300 300 300 300 300 300 301 302 302 302 303 303 303 304 307 309 309 310 309 306 304 304 303 302 302 303 303 303 304 305 306 306 306 307 308 308 309 310 308 307 306 306 305 304 305 306 308 309 310 310 310 311 312
303 302 301 301 301 301 300 300 300 300 300 299 299 299 299 299 299 300 300 300 301 302 302 303 306 308 309 309 309 307 306 305 303 301 301 302 302 302 303 303 304 305 305 306 307 307 307 307 306 304 304 304 303 302 303 305 306 307 307 307 307 308 308
302 301 301 300 300 300 300 300 300 299 299 299 299 299 299 299 298 298 298 299 299 300 301 302 303 306 307 308 308 308 307 304 300 300 301 301 301 301 301 302 303 304 304 305 305 305 305 305 304 303 303 303 302 302 302 303 304 304 304 303 303 303 304
302 300 300 300 300 300 300 300 300 299 299 299 299 299 299 298 298 297 297 298 298 298 299 300 301 303 304 305 306 306 305 301 299 299 300 300 299 299 299 300 301 302 304 304 304 304 303 303 303 302 302 302 301 302 302 302 303 303 302 302 301 301 301
301 300 300 300 300 300 299 299 300 299 299 299 299 299 298 298 298 297 297 297 297 297 298 299 300 300 301 302 302 303 302 300 299 300 299 298 298 298 298 299 300 301 302 302 302 303 303 302 302 302 301 301 301 302 302 302 301 301 301 300 300 300 300
300 300 300 300 300 300 299 299 300 299 299 299 298 298 298 298 298 297 297 296 296 296 297 298 298 299 299 299 300 300 300 299 299 299 298 297 296 297 298 298 299 300 301 301 301 301 301 301 301 301 301 301 301 301 301 301 301 301 300 300 300 300 300
300 299 299 300 300 300 299 299 299 299 298 298 298 297 296 297 297 296 296 296 296 296 296 297 297 298 298 298 298 298 298 298 298 298 297 296 296 296 297 297 298 299 299 299 300 300 300 300 301 300 301 301 301 301 301 300 300 300 300 300 300 300 300
Wind_Speed
1 2 2 3 5 7 9 10 11 11 11 11 10 10 10 10 11 12 12 12 12 13 13 13 14 14 14 14 16 17 19 19 20 20 21 18 16 16 19 22 24 23 21 16 12 8 2 2 7 13 19 21 22 24 26 28 28 28 28 27 24 23 23
3 4 4 4 5 7 9 10 11 11 12 11 11 10 9 9 10 12 13 13 13 13 14 15 16 16 15 14 15 17 18 20 21 21 22 22 20 19 17 19 22 23 23 22 19 14 8 5 4 4 10 15 18 24 27 27 28 29 29 29 26 25 24
5 5 5 5 5 6 8 9 11 13 14 15 14 12 10 10 11 12 13 14 14 14 14 15 16 16 15 15 15 17 18 19 20 21 23 23 23 22 20 20 20 18 15 14 17 16 11 9 7 4 8 11 11 18 27 29 28 29 30 29 27 26 26
4 5 5 5 5 6 8 10 12 15 17 18 18 17 15 14 14 14 14 15 15 15 15 16 16 17 17 17 17 18 19 19 20 21 22 23 23 23 23 24 24 22 18 15 17 19 14 9 7 5 9 14 14 16 22 27 28 28 28 29 29 27 27
4 5 5 6 7 8 9 12 15 17 18 18 18 18 17 17 17 17 17 17 17 17 18 18 18 18 18 18 19 19 19 20 20 21 22 23 24 24 23 24 25 26 25 24 23 22 19 16 12 6 7 13 13 12 16 21 24 26 27 28 29 29 28
4 5 6 7 8 10 11 12 14 15 15 16 16 17 17 17 18 18 19 19 19 20 20 20 20 19 19 18 19 19 20 21 21 22 23 23 24 25 24 23 24 25 25 27 27 24 22 21 16 9 9 12 11 8 11 17 21 23 26 28 29 29 30
4 5 7 8 9 10 11 11 12 12 13 14 14 16 17 18 19 19 19 20 20 20 20 20 20 18 18 17 18 20 21 20 21 22 24 24 24 25 25 23 24 25 25 27 28 26 24 22 19 14 10 10 11 9 10 16 19 17 20 26 28 28 29
5 6 7 8 9 10 11 11 11 11 12 14 15 16 17 18 19 19 19 19 19 19 19 18 18 17 17 17 19 22 22 21 21 22 22 23 24 25 24 23 24 24 25 26 26 26 26 25 24 22 15 8 7 7 6 13 18 18 19 22 24 27 28
5 6 7 8 9 10 10 10 10 11 13 14 14 16 16 17 18 18 18 18 19 19 17 17 17 17 17 17 19 22 22 21 22 22 21 21 23 23 23 23 23 23 24 26 26 26 27 27 27 26 23 14 8 5 3 8 12 15 20 19 18 24 28
6 8 9 10 10 10 9 9 11 12 12 13 14 15 16 16 16 16 17 19 19 19 17 16 17 17 17 18 19 21 21 20 19 20 21 21 21 21 22 22 22 23 23 24 25 25 25 27 28 27 25 22 15 7 4 7 8 9 16 20 18 19 25
8 9 9 9 9 8 9 11 12 12 12 13 15 16 16 16 15 16 17 19 20 20 18 16 16 17 17 19 19 20 20 19 18 19 20 20 19 19 20 21 21 22 22 22 24 25 25 26 28 28 27 27 24 16 8 6 7 9 14 19 20 20 22
9 9 8 7 7 8 10 11 11 12 12 13 14 15 16 16 16 17 18 19 19 19 18 16 16 17 17 18 19 19 17 17 17 17 16 17 18 18 19 20 21 21 20 20 21 23 24 24 25 26 26 26 27 24 17 9 5 10 16 18 20 22 22
6 6 5 6 7 8 9 10 10 12 13 13 14 15 16 17 16 16 17 17 17 17 16 15 15 16 16 17 19 19 16 14 15 16 15 15 16 17 18 19 20 20 19 19 19 20 22 23 24 24 24 24 24 23 21 14 5 6 15 19 19 21 23
7 7 6 7 8 9 10 11 11 12 11 12 14 15 16 16 15 15 15 15 15 15 14 13 14 15 16 16 17 18 17 14 15 16 15 15 15 15 16 17 18 19 18 18 18 18 19 21 23 23 23 23 23 21 20 17 9 4 10 18 18 19 23
8 7 8 9 10 10 10 10 10 10 11 12 13 14 15 15 14 14 14 13 14 14 13 12 13 15 17 17 16 16 17 16 15 16 15 15 16 16 15 15 17 17 16 17 17 17 17 19 21 21 22 22 23 23 22 20 15 9 9 15 18 18 21
9 8 8 9 9 9 9 9 10 10 11 12 13 13 15 15 15 15 15 14 14 14 13 12 13 14 15 17 15 15 16 15 15 15 15 16 16 15 13 12 14 15 15 15 16 16 16 18 20 19 20 21 22 24 24 23 19 14 11 12 17 19 21
10 10 10 9 9 9 9 9 10 11 11 12 13 14 15 16 16 16 16 16 16 15 14 13 14 13 13 14 14 14 15 14 13 12 13 13 13 12 11 11 12 12 13 14 14 14 16 19 20 20 19 20 22 23 25 25 23 19 15 13 16 21 23
10 10 10 10 10 10 10 10 11 11 12 12 13 14 16 16 16 16 16 16 16 16 16 14 14 13 13 13 13 13 13 12 11 11 11 10 9 9 9 10 10 10 11 12 13 14 16 18 19 20 20 20 22 23 23 25 25 22 19 17 16 18 20
11 10 10 10 11 11 12 12 13 13 13 13 14 15 15 16 15 15 15 15 15 16 17 15 12 11 12 13 12 12 13 12 11 10 9 9 7 6 7 7 8 8 10 11 12 14 16 18 18 18 19 20 21 22 22 24 24 22 20 18 17 17 19
12 12 11 12 13 13 14 15 15 16 15 15 15 15 16 16 16 15 15 16 17 18 18 16 14 12 12 12 12 12 12 11 10 9 9 9 8 6 5 5 6 6 8 9 10 13 15 16 17 18 19 20 20 21 21 21 20 20 19 17 16 18 20
13 13 12 13 14 15 16 16 17 16 15 16 16 16 17 18 18 18 18 19 21 21 21 20 19 17 14 12 12 12 11 10 9 8 8 8 8 7 7 6 6 5 5 7 8 10 12 13 15 17 18 19 20 20 20 20 19 19 19 18 16 18 19
12 13 13 15 17 17 18 18 18 17 17 17 18 18 18 20 21 21 21 22 23 23 23 23 22 19 16 14 14 13 12 11 11 10 10 10 9 9 9 8 7 6 5 5 6 7 9 10 12 15 17 18 20 20 19 19 19 18 18 16 15 16 16
12 14 16 18 19 19 20 20 19 19 20 20 20 19 21 23 25 25 25 25 25 24 24 24 21 18 17 16 16 16 16 15 14 13 13 12 12 12 12 11 9 7 6 4 4 5 6 8 9 12 15 16 18 20 19 19 19 18 17 16 16 17 15
14 16 17 19 20 20 21 21 21 21 22 22 21 22 24 25 26 27 28 27 26 26 26 24 20 19 18 18 18 18 19 19 18 17 17 15 15 15 16 16 14 12 10 7 6 6 5 5 6 8 11 12 14 16 17 18 18 19 18 16 17 19 18
16 18 18 19 20 20 21 22 23 23 24 25 25 25 26 26 26 27 28 27 27 28 27 24 22 21 20 20 20 21 22 23 23 23 22 21 20 19 19 19 18 16 14 11 9 8 7 3 1 3 4 6 7 9 11 12 14 17 19 18 17 19 20
17 18 18 19 19 20 21 22 23 24 25 26 27 28 29 29 29 29 29 28 28 28 28 25 24 23 23 23 24 26 27 28 28 28 27 26 25 23 23 22 21 20 17 14 12 10 10 10 9 7 7 6 4 1 3 6 8 11 16 18 18 20 21
16 17 18 18 19 21 22 23 23 24 25 27 29 30 30 30 31 31 30 29 29 28 27 26 25 26 26 27 28 29 31 31 31 31 29 28 28 27 27 26 25 24 21 18 16 15 15 16 17 16 17 18 17 13 8 4 1 3 7 12 14 16 17
14 16 17 19 20 21 22 23 23 24 25 27 28 30 30 31 31 31 31 31 30 30 28 26 26 27 28 29 31 32 33 34 35 35 34 32 30 30 30 30 29 27 25 22 19 18 19 21 22 25 27 29 29 28 25 21 15 9 6 3 5 6 9
15 16 17 19 21 21 22 23 23 23 24 26 28 30 31 32 32 33 32 32 32 32 30 28 28 29 30 31 32 33 34 36 38 38 38 36 34 32 31 30 30 29 28 26 22 20 22 24 28 31 33 33 34 36 35 32 26 21 18 16 12 9 6
16 16 17 19 21 21 21 22 22 22 24 26 28 30 30 31 33 33 33 33 33 32 31 30 30 31 32 33 33 31 31 34 38 39 39 39 38 36 33 31 30 30 29 28 26 25 26 28 32 35 34 34 35 35 33 33 33 31 28 26 22 19 14
16 17 18 20 20 20 21 22 22 22 24 26 27 27 29 31 33 33 33 33 32 32 30 29 30 32 33 34 34 32 30 33 36 37 38 39 40 39 37 34 32 31 30 28 28 29 30 32 34 34 34 34 34 33 31 31 34 35 34 33 32 29 27
16 17 19 20 21 21 22 22 22 23 24 26 27 27 29 32 33 33 33 33 33 33 32 29 29 30 31 33 34 34 34 37 37 35 36 39 40 40 40 38 36 34 32 31 30 30 32 33 34 32 32 34 33 30 30 32 34 35 36 38 38 37 37
17 18 19 20 21 22 22 23 24 24 25 26 28 29 30 31 32 32 32 33 34 34 33 32 30 30 30 31 32 34 36 35 33 33 37 39 39 39 39 39 37 35 33 33 32 32 33 33 33 33 33 33 30 26 28 32 34 36 37 39 39 39 40
17 19 20 21 23 23 24 25 26 26 27 27 28 29 29 30 31 31 31 32 34 33 33 32 31 30 31 31 31 33 35 33 30 32 37 38 38 38 38 38 37 34 33 34 34 34 34 33 34 34 33 32 28 26 29 32 33 35 37 38 39 39 39
18 19 21 23 25 25 25 26 27 27 28 28 29 29 29 29 30 31 30 31 32 32 32 32 32 32 31 32 32 33 35 33 32 34 37 37 35 36 36 36 36 34 33 33 33 33 33 33 33 33 31 29 28 28 30 32 33 35 36 36 37 37 36
19 21 22 24 26 26 25 26 26 27 27 28 28 28 27 28 30 30 30 30 31 31 31 32 32 32 32 32 33 33 34 34 34 37 38 36 34 34 35 35 35 34 34 34 33 33 33 32 32 30 29 28 29 30 31 32 33 34 34 34 34 33 32
21 22 23 24 26 25 25 25 26 26 27 28 28 27 26 27 29 29 29 29 29 29 30 30 30 31 31 32 33 34 35 35 36 37 38 37 35 35 35 34 34 34 35 35 35 35 35 34 32 31 29 29 29 30 31 33 33 34 34 33 32 31 30
Wind_Direction
87 56 30 356 343 339 338 338 339 340 343 345 346 347 348 347 343 340 339 336 332 327 321 313 308 304 296 283 277 277 274 268 260 254 257 257 243 237 241 240 240 239 237 230 219 216 223 238 219 218 227 228 226 231 233 232 231 229 225 219 218 219 215
30 26 23 10 350 341 340 339 338 340 342 343 345 348 350 347 341 339 337 334 334 331 325 319 313 307 298 284 277 278 276 271 265 257 255 255 247 245 249 241 237 238 236 232 229 226 225 229 225 205 215 218 220 226 231 233 232 231 228 221 218 218 214
24 26 23 13 359 346 343 340 341 344 342 339 336 336 338 338 335 333 331 329 329 327 323 319 313 307 299 290 285 285 284 279 272 266 260 257 250 247 250 245 237 233 229 228 227 224 221 222 229 224 205 200 205 218 223 226 228 229 227 222 218 217 214
33 30 23 19 11 356 350 346 344 341 336 331 327 325 326 327 326 325 325 324 322 322 319 316 312 307 304 302 299 296 292 286 281 276 270 266 259 248 244 242 236 232 227 223 222 217 213 215 218 225 215 208 209 216 218 220 222 225 225 222 218 217 215
43 30 30 29 23 9 357 345 337 332 327 324 320 319 320 321 321 320 320 318 317 317 317 315 311 308 308 306 302 298 294 289 286 281 271 267 267 258 250 246 240 237 232 231 231 221 215 216 215 221 221 211 212 221 218 212 213 217 221 220 218 217 216
50 37 35 27 19 9 357 344 334 329 326 324 321 320 319 318 316 315 315 314 314 315 314 312 311 309 307 303 299 295 291 288 285 279 269 265 270 270 267 261 252 248 243 240 237 228 223 221 221 229 219 204 204 213 210 204 205 210 216 219 219 218 217
44 34 28 17 11 1 352 344 337 333 330 326 323 319 316 313 310 310 311 311 311 312 312 312 314 313 309 304 299 294 289 287 286 282 274 270 271 272 268 263 259 256 252 247 238 231 229 224 220 223 211 197 200 196 195 199 200 203 211 219 222 219 217
44 34 25 13 5 353 341 334 331 330 327 323 318 314 311 309 309 309 310 311 312 312 312 313 313 312 309 304 301 295 290 290 289 283 278 274 272 269 265 260 261 259 256 252 245 238 234 227 222 218 207 190 194 191 186 193 197 203 207 213 220 220 217
37 20 12 2 354 346 337 333 333 332 326 321 319 317 316 316 315 316 315 313 313 313 314 314 311 309 307 304 302 299 294 293 292 287 282 277 272 269 266 263 263 263 260 256 251 246 240 233 227 221 210 198 190 181 174 188 195 206 209 206 210 218 219
16 5 358 352 347 341 337 337 337 334 331 331 331 330 329 329 328 327 324 319 317 319 321 322 319 315 312 308 305 302 298 294 292 291 288 280 274 272 269 266 266 265 262 257 251 251 250 241 231 224 217 210 204 191 177 194 194 195 204 205 203 208 215
10 3 357 352 346 343 342 340 340 339 338 338 339 339 340 341 339 334 329 325 324 325 327 327 323 317 314 311 307 304 301 296 289 289 289 281 276 275 271 267 266 263 260 259 257 256 254 245 232 224 222 220 214 205 185 185 201 197 197 202 206 207 206
6 359 360 0 353 351 348 343 342 340 337 339 343 345 345 343 339 334 330 328 329 329 328 324 318 315 313 311 308 305 303 301 294 292 294 290 283 280 276 271 266 260 258 258 258 254 250 245 234 225 222 219 215 207 193 177 195 204 198 198 205 212 212
19 17 16 8 357 356 351 343 339 334 333 340 344 343 341 338 334 331 328 327 330 332 331 330 327 323 318 314 313 310 305 302 298 294 296 297 290 283 278 271 264 261 260 255 249 248 248 246 240 230 221 216 211 205 194 185 180 193 199 204 205 211 218
54 45 30 12 1 355 347 342 340 337 340 346 346 343 339 336 335 334 331 329 333 334 335 338 340 335 326 322 321 317 311 303 297 295 294 295 294 288 277 267 264 263 260 253 245 243 245 243 240 231 221 214 208 204 198 193 190 172 193 207 210 211 216
46 25 9 360 353 346 342 344 346 349 353 352 348 343 338 337 343 346 342 338 336 336 339 343 342 340 336 334 333 330 323 313 305 302 300 297 295 292 279 264 263 262 255 252 247 242 241 239 235 227 219 213 209 208 207 201 196 185 184 200 206 210 213
34 16 4 357 352 350 354 357 354 354 355 349 345 344 343 346 352 354 353 350 342 337 339 342 339 339 339 339 339 338 333 324 316 311 308 305 299 293 281 265 264 262 254 251 246 242 243 240 235 228 221 217 213 212 209 206 202 194 186 191 199 204 207
21 13 11 9 5 4 5 3 357 356 354 349 349 351 351 352 356 359 359 357 353 347 343 339 336 338 341 340 340 340 337 332 329 325 320 315 306 297 289 275 270 264 254 249 244 241 242 239 235 232 228 222 218 214 209 208 208 202 194 190 198 204 204
15 14 16 17 15 11 12 9 4 3 1 359 1 1 0 1 4 7 5 360 358 356 352 348 344 344 347 346 345 347 346 347 352 349 336 326 317 306 299 287 278 271 257 248 244 239 236 233 231 228 226 222 218 214 209 209 209 205 201 195 193 200 204
23 29 29 29 28 24 23 21 18 19 18 17 19 17 15 16 16 16 11 7 6 5 4 4 360 354 355 358 358 359 358 359 3 359 346 340 338 319 299 292 288 279 264 252 246 241 236 233 230 225 222 219 216 211 208 209 209 205 207 204 192 189 196
33 41 40 39 40 39 36 33 31 31 31 32 34 33 32 31 31 30 27 26 27 24 22 22 18 13 11 10 7 4 3 5 7 5 358 357 358 349 323 308 303 286 268 262 255 248 243 237 231 227 225 222 217 212 208 208 207 203 204 202 191 188 192
42 46 46 47 48 47 44 41 38 38 39 43 44 42 43 43 42 43 44 44 42 39 37 35 31 27 24 21 16 13 12 15 20 27 28 22 17 17 16 4 348 329 300 286 274 264 259 251 241 235 232 225 218 213 209 206 202 199 199 196 189 188 190
48 50 50 52 52 50 49 47 46 46 48 50 50 51 54 52 49 50 52 51 49 45 42 40 38 35 33 32 32 30 31 34 37 43 46 43 38 33 32 26 14 1 344 320 297 286 278 269 259 246 237 229 219 213 211 206 200 196 196 193 186 184 185
54 54 54 54 55 55 56 55 54 54 55 56 56 59 63 59 53 53 53 53 51 48 44 43 41 39 40 42 43 43 44 46 46 45 44 41 38 34 30 26 19 10 2 349 330 316 296 280 272 258 248 241 228 219 214 208 203 198 194 193 189 185 183
59 58 57 57 58 61 62 60 59 60 59 58 59 63 64 60 55 53 54 53 52 50 47 44 43 44 45 46 48 50 51 51 51 49 45 40 35 31 30 28 26 24 20 16 11 4 343 299 270 256 251 244 231 223 215 207 204 200 195 194 193 190 190
62 61 60 59 62 65 65 63 62 62 60 59 61 62 62 59 55 53 54 54 53 51 49 48 48 51 52 52 55 58 58 57 56 53 50 46 40 34 31 32 32 33 33 30 27 27 27 28 207 213 219 219 218 219 216 209 206 205 203 200 197 197 199
64 63 62 63 66 68 67 63 61 62 61 61 61 61 60 59 56 55 55 54 53 52 52 52 54 56 58 60 63 64 63 62 59 57 54 50 46 42 39 39 40 40 41 44 46 51 62 75 90 100 100 95 86 111 205 208 207 210 212 209 206 208 210
69 67 67 69 71 70 67 64 62 62 63 63 62 60 59 59 58 57 57 56 54 53 53 55 60 63 64 65 67 66 65 63 60 57 55 53 51 50 48 47 48 48 48 53 60 68 76 81 83 81 76 69 63 59 57 60 98 206 216 215 214 215 215
79 75 73 75 75 73 70 68 65 64 64 63 63 62 61 60 59 59 59 59 58 56 55 58 62 66 68 69 69 67 64 63 61 58 56 56 56 56 55 56 56 56 57 61 67 74 80 82 81 77 73 68 65 63 60 57 56 60 73 126 181 193 201
87 82 78 79 79 76 74 73 70 67 66 66 66 65 64 63 62 62 61 62 62 60 59 61 65 68 70 70 69 65 62 61 61 59 58 58 58 59 61 63 63 63 64 67 70 75 81 83 80 77 74 70 68 67 65 64 66 68 70 74 82 92 118
91 85 82 82 82 80 79 78 74 72 71 69 68 67 66 65 64 65 64 64 64 63 62 64 69 72 72 72 68 64 61 61 60 59 59 59 59 60 62 65 68 69 69 71 74 76 79 81 80 78 75 72 71 69 67 68 72 74 74 75 77 78 79
94 89 86 86 85 85 84 83 80 78 76 75 73 70 69 68 67 66 66 64 64 64 63 65 71 74 74 75 73 69 65 64 62 60 59 60 60 61 62 64 67 70 70 72 76 77 78 78 78 76 75 73 70 66 65 69 73 75 76 76 75 77 76
98 94 91 90 91 91 89 88 87 84 82 80 78 76 73 71 68 66 66 66 66 66 64 64 69 73 75 76 76 74 72 69 65 62 61 61 61 61 62 63 65 67 69 70 72 73 75 76 74 72 73 72 68 63 65 70 73 73 73 72 71 71 71
103 100 98 97 97 97 95 94 92 88 85 84 82 79 77 74 71 67 66 66 66 66 66 65 66 69 72 75 76 78 77 72 68 66 66 64 61 60 61 63 64 66 67 68 68 68 69 72 73 72 71 70 67 66 70 73 74 74 73 71 69 68 68
107 104 103 103 102 99 97 96 93 90 88 86 84 81 78 76 74 70 67 66 66 66 67 68 67 68 70 72 74 77 77 74 71 71 70 67 64 62 61 63 65 67 68 68 68 68 68 69 71 72 72 72 71 73 74 73 73 74 73 71 69 67 66
111 108 108 107 105 100 97 96 95 93 91 89 86 82 79 77 76 73 70 69 68 67 68 70 70 70 70 72 74 76 77 76 76 76 74 70 67 65 65 66 67 68 70 70 70 70 70 70 71 72 73 75 75 76 75 74 73 73 71 69 67 65 63
112 111 110 109 107 102 99 98 97 95 94 91 87 83 79 78 77 74 71 71 70 70 71 72 72 73 73 75 76 77 79 79 79 79 77 73 71 70 71 71 71 71 72 72 71 70 70 69 70 71 72 73 74 74 75 74 71 69 67 64 63 61 59
115 113 111 110 108 105 102 101 98 96 94 91 87 83 79 79 78 75 72 71 71 73 75 76 76 76 77 78 79 79 80 80 80 81 80 77 76 75 75 75 74 74 73 72 71 70 69 68 69 69 69 69 70 70 70 69 67 66 64 61 59 57 56